NOAA 16 DEB, 42367

Orbit data source: Space-Track

NOAA 16 DEB, 42367 is space debris in SSO originally from a launch on Thu, 21 Sep 2000 UTC launched from the Air Force Western Test Range (AFWTR). Debris objects in space refer to the collection of defunct objects orbiting the Earth. Examples of debris include non-operational satellites, rocket bodies, and fragments generated from explosions, collisions, or faulty payload assembly.

Loading next visibility...
Identifier
42367, 2000-055RK
Orbit
SSO
Country
Flag of USUS
Related business
Manufacturer
Unknown
Mission
Spacecraft
Bus & Motor
Unknown
Mass
Unknown
Launch date (UTC)
2000-09-21 (25 years ago)
Launch vehicle
Unknown
Launch site
Air Force Western Test Range (AFWTR)
Object type
Payload
Rocket body
Debris
Shape & HBR
Unknown shape, 0.1 m
Radar Cross Section
Small (<0.1 m²)

Expand to show TLE details & history
Last TLE update: 7 hours ago

TLE from 7 hours ago
0 NOAA 16 DEB
1 42367U 00055RK  26038.14361604  .00025199  00000-0  64898-2 0  9999
2 42367  98.8869 158.7033 0017159 136.0793 224.1767 14.49953540508580
Epoch: 2026-02-07T03:26Z
TLE epoch observation values (Epoch: 2026-02-07T03:26:48.425Z)
Latitude
-0.00001°
Longitude
-30.26983°
Altitude
737.504 km
Speed
7.482 km/s
True Right ascension
10h 34m 48s
True Declination
0° 00' 00"
Sunlit
Object was in full shadow at epoch
Visualization orbit readout
Latitude
Unknown
Longitude
Unknown
Altitude
Unknown
Speed
Unknown
Apparent Right ascension
Unknown
Apparent Declination
Unknown
Sunlit
N/A
Visualization observer readout
Local Sidereal Time
12:36:08
Azimuth
Unknown
Elevation
Unknown
Doppler factor
Unknown
Orbital elements
Apogee altitude
735.112 km
Perigee altitude
710.743 km
Semi-major axis
7,101.065 km
Eccentricity
0.00172
Inclination
98.8869°
RAAN
158.7033°
Arg. of periapsis
136.0793°
True anomaly
224.03989°
Mean anomaly
224.1767°
Eccentric anomaly
224.10827°
Mean motion
3.62709 °/min
Orbital period
99.25 mins
BSTAR
0.0064898
Loading maneuver chart data...
Computing Atmospheric mass density...
Loading historical data...
Loading historical data...
Loading historical data...
Loading historical data...
Loading historical data...
Loading historical data...
Loading historical data...

Documentation

Showing up to 5 results
|